Starlink 32953

operational
NORAD ID: 63561 Int'l Des: 2025-075 Owner: SPXS Country: US Constellation: starlink
LEOCIRCULAR

关于 Starlink 32953

正在加载描述...

实时位置

正在加载3D地球...

即将过境

高度历史

Altitude vs Time

uPlot chart will show altitude changes over time

两行轨道根数

1 63561U 25075P 25350.11456816 .00027046 00000-0 98784-3 0 9995
2 63561 43.0004 22.7961 0000334 239.5256 120.5563 15.27610245 39145
Epoch: Dec 16, 2025 • Age: 25 hours

当前状态

高度 494.0 km
速度 7.62 km/s
星下点 -38.60°S, 118.96°E
发射日期 Apr 13, 2025
运行时间 0.6 years
类型 internet

技术详情

分类 Payload
质量 730.00 kg
干质量 700.00 kg
总质量 730.00 kg
长度 0.30 m
直径 4.10 m
跨度 29.00 m
形状 Box + pan
制造商 SPXS
平台类型 Starlink V2M
阶段状态 In Orbit
所有者/国家 SPXS/US

大型星座

Loading constellations...